Time,TemperatureF,DewpointF,PressureIn,WindDirection,WindDirectionDegrees,WindSpeedMPH,WindSpeedGustMPH,Humidity,HourlyPrecipIn,Conditions,Clouds,dailyrainin,SoftwareType,DateUTC
2013-02-03 00:00:00,44.1,36.7,30.29,North,9,0.0,0.0,75,0.00,,,0.00,meteohub,2013-02-03 06:00:00,
2013-02-03 00:05:00,44.2,36.5,30.29,North,9,0.0,0.0,74,0.00,,,0.00,meteohub,2013-02-03 06:05:00,
2013-02-03 00:11:00,44.6,36.5,30.29,North,9,0.0,0.0,73,0.00,,,0.00,meteohub,2013-02-03 06:11:00,
2013-02-03 00:16:00,44.6,36.5,30.29,North,9,0.0,0.0,73,0.00,,,0.00,meteohub,2013-02-03 06:16:00,
2013-02-03 00:21:00,44.4,36.0,30.29,North,9,0.0,0.0,72,0.00,,,0.00,meteohub,2013-02-03 06:21:00,
2013-02-03 00:26:00,44.6,36.1,30.29,North,9,0.0,0.0,72,0.00,,,0.00,meteohub,2013-02-03 06:26:00,
2013-02-03 00:32:00,44.4,36.0,30.28,North,9,0.0,0.0,72,0.00,,,0.00,meteohub,2013-02-03 06:32:00,
2013-02-03 00:37:00,44.4,36.0,30.28,North,9,0.0,1.0,72,0.00,,,0.00,meteohub,2013-02-03 06:37:00,
2013-02-03 00:42:00,44.2,35.8,30.29,North,9,0.0,1.0,72,0.00,,,0.00,meteohub,2013-02-03 06:42:00,
2013-02-03 00:47:00,44.1,36.0,30.28,North,9,0.0,1.0,73,0.00,,,0.00,meteohub,2013-02-03 06:47:00,
2013-02-03 00:52:00,43.9,35.8,30.29,North,9,0.0,1.0,73,0.00,,,0.00,meteohub,2013-02-03 06:52:00,
2013-02-03 00:57:00,43.9,36.1,30.29,North,9,0.0,1.0,74,0.00,,,0.00,meteohub,2013-02-03 06:57:00,
2013-02-03 01:02:00,43.7,36.0,30.29,North,9,0.0,0.0,74,0.00,,,0.00,meteohub,2013-02-03 07:02:00,
2013-02-03 01:07:00,43.3,35.6,30.29,North,9,0.0,0.0,74,0.00,,,0.00,meteohub,2013-02-03 07:07:00,
2013-02-03 01:12:00,43.3,35.6,30.29,North,9,0.0,0.0,74,0.00,,,0.00,meteohub,2013-02-03 07:12:00,
2013-02-03 01:17:00,43.3,35.6,30.29,North,9,0.0,0.0,74,0.00,,,0.00,meteohub,2013-02-03 07:17:00,
2013-02-03 01:22:00,43.2,35.4,30.29,North,9,0.0,0.0,74,0.00,,,0.00,meteohub,2013-02-03 07:22:00,
2013-02-03 01:28:00,43.2,35.8,30.29,North,9,0.0,1.0,75,0.00,,,0.00,meteohub,2013-02-03 07:28:00,
2013-02-03 01:33:00,42.8,35.8,30.29,North,9,0.0,1.0,76,0.00,,,0.00,meteohub,2013-02-03 07:33:00,
2013-02-03 01:38:00,42.3,36.1,30.29,North,9,0.0,1.0,79,0.00,,,0.00,meteohub,2013-02-03 07:38:00,
2013-02-03 01:43:00,41.4,36.0,30.29,North,9,0.0,0.0,81,0.00,,,0.00,meteohub,2013-02-03 07:43:00,
2013-02-03 01:48:00,40.8,36.1,30.29,North,9,0.0,0.0,83,0.00,,,0.00,meteohub,2013-02-03 07:48:00,
2013-02-03 01:54:00,40.6,36.0,30.29,North,9,0.0,0.0,83,0.00,,,0.00,meteohub,2013-02-03 07:54:00,
2013-02-03 01:59:00,40.6,36.0,30.29,North,9,0.0,0.0,83,0.00,,,0.00,meteohub,2013-02-03 07:59:00,
2013-02-03 02:04:00,40.5,35.8,30.29,North,9,0.0,0.0,83,0.00,,,0.00,meteohub,2013-02-03 08:04:00,
2013-02-03 02:09:00,40.3,35.6,30.29,North,9,0.0,0.0,83,0.00,,,0.00,meteohub,2013-02-03 08:09:00,
2013-02-03 02:14:00,40.3,35.8,30.29,North,9,0.0,0.0,84,0.00,,,0.00,meteohub,2013-02-03 08:14:00,
2013-02-03 02:19:00,39.9,35.8,30.28,North,9,0.0,0.0,85,0.00,,,0.00,meteohub,2013-02-03 08:19:00,
2013-02-03 02:25:00,39.7,36.0,30.28,North,9,0.0,0.0,86,0.00,,,0.00,meteohub,2013-02-03 08:25:00,
2013-02-03 02:30:00,39.6,36.0,30.28,North,9,0.0,0.0,87,0.00,,,0.00,meteohub,2013-02-03 08:30:00,
2013-02-03 02:35:00,39.4,36.1,30.28,North,9,0.0,0.0,88,0.00,,,0.00,meteohub,2013-02-03 08:35:00,
2013-02-03 02:40:00,39.0,36.3,30.28,North,9,0.0,0.0,90,0.00,,,0.00,meteohub,2013-02-03 08:40:00,
2013-02-03 02:45:00,38.8,36.1,30.28,North,9,0.0,0.0,90,0.00,,,0.00,meteohub,2013-02-03 08:45:00,
2013-02-03 02:51:00,38.8,36.5,30.28,North,9,0.0,0.0,91,0.00,,,0.00,meteohub,2013-02-03 08:51:00,
2013-02-03 02:56:00,38.8,36.5,30.28,North,9,0.0,0.0,91,0.00,,,0.00,meteohub,2013-02-03 08:56:00,
2013-02-03 03:01:00,38.8,36.5,30.28,North,9,0.0,0.0,91,0.00,,,0.00,meteohub,2013-02-03 09:01:00,
2013-02-03 03:06:00,38.7,36.3,30.28,North,9,0.0,0.0,91,0.00,,,0.00,meteohub,2013-02-03 09:06:00,
2013-02-03 03:11:00,38.7,36.0,30.28,North,9,0.0,0.0,90,0.00,,,0.00,meteohub,2013-02-03 09:11:00,
2013-02-03 03:16:00,38.7,36.0,30.28,North,9,0.0,0.0,90,0.00,,,0.00,meteohub,2013-02-03 09:16:00,
2013-02-03 03:22:00,38.7,35.8,30.28,North,9,0.0,0.0,89,0.00,,,0.00,meteohub,2013-02-03 09:22:00,
2013-02-03 03:27:00,38.5,35.6,30.28,North,9,0.0,0.0,89,0.00,,,0.00,meteohub,2013-02-03 09:27:00,
2013-02-03 03:32:00,38.5,35.6,30.27,North,9,0.0,0.0,89,0.00,,,0.00,meteohub,2013-02-03 09:32:00,
2013-02-03 03:37:00,38.3,35.4,30.28,North,9,0.0,0.0,89,0.00,,,0.00,meteohub,2013-02-03 09:37:00,
2013-02-03 03:42:00,38.1,35.2,30.27,North,9,0.0,0.0,89,0.00,,,0.00,meteohub,2013-02-03 09:42:00,
2013-02-03 03:47:00,38.1,34.9,30.27,North,9,0.0,0.0,88,0.00,,,0.00,meteohub,2013-02-03 09:47:00,
2013-02-03 03:52:00,37.9,34.7,30.27,North,9,0.0,0.0,88,0.00,,,0.00,meteohub,2013-02-03 09:52:00,
2013-02-03 03:57:00,37.9,34.7,30.27,North,9,0.0,0.0,88,0.00,,,0.00,meteohub,2013-02-03 09:57:00,
2013-02-03 04:02:00,37.8,34.5,30.27,North,9,0.0,0.0,88,0.00,,,0.00,meteohub,2013-02-03 10:02:00,
2013-02-03 04:07:00,37.8,34.5,30.27,North,9,0.0,0.0,88,0.00,,,0.00,meteohub,2013-02-03 10:07:00,
2013-02-03 04:12:00,37.6,34.3,30.27,North,9,0.0,0.0,88,0.00,,,0.00,meteohub,2013-02-03 10:12:00,
2013-02-03 04:17:00,37.6,34.3,30.27,North,9,0.0,0.0,88,0.00,,,0.00,meteohub,2013-02-03 10:17:00,
2013-02-03 04:22:00,37.4,34.2,30.27,North,9,0.0,0.0,88,0.00,,,0.00,meteohub,2013-02-03 10:22:00,
2013-02-03 04:27:00,37.4,34.2,30.27,North,9,0.0,0.0,88,0.00,,,0.00,meteohub,2013-02-03 10:27:00,
2013-02-03 04:32:00,37.2,34.0,30.27,North,9,0.0,0.0,88,0.00,,,0.00,meteohub,2013-02-03 10:32:00,
2013-02-03 04:37:00,37.0,34.2,30.27,North,9,0.0,0.0,89,0.00,,,0.00,meteohub,2013-02-03 10:37:00,
2013-02-03 04:43:00,37.0,34.2,30.26,North,9,0.0,0.0,89,0.00,,,0.00,meteohub,2013-02-03 10:43:00,
2013-02-03 04:48:00,37.0,33.8,30.26,North,9,0.0,0.0,88,0.00,,,0.00,meteohub,2013-02-03 10:48:00,
2013-02-03 04:53:00,37.0,33.8,30.26,North,9,0.0,0.0,88,0.00,,,0.00,meteohub,2013-02-03 10:53:00,
2013-02-03 04:58:00,37.0,33.8,30.26,North,9,0.0,0.0,88,0.00,,,0.00,meteohub,2013-02-03 10:58:00,
2013-02-03 05:04:00,37.0,33.8,30.26,North,9,0.0,0.0,88,0.00,,,0.00,meteohub,2013-02-03 11:04:00,
2013-02-03 05:09:00,37.0,33.8,30.26,North,9,0.0,0.0,88,0.00,,,0.00,meteohub,2013-02-03 11:09:00,
2013-02-03 05:14:00,37.0,33.8,30.26,North,9,0.0,0.0,88,0.00,,,0.00,meteohub,2013-02-03 11:14:00,
2013-02-03 05:19:00,37.0,33.6,30.26,North,9,0.0,0.0,87,0.00,,,0.00,meteohub,2013-02-03 11:19:00,
2013-02-03 05:24:00,36.9,33.4,30.26,North,9,0.0,0.0,87,0.00,,,0.00,meteohub,2013-02-03 11:24:00,
2013-02-03 05:30:00,36.9,33.6,30.26,North,9,0.0,0.0,88,0.00,,,0.00,meteohub,2013-02-03 11:30:00,
2013-02-03 05:35:00,36.9,33.6,30.26,North,9,0.0,0.0,88,0.00,,,0.00,meteohub,2013-02-03 11:35:00,
2013-02-03 05:40:00,36.9,33.6,30.25,North,9,0.0,0.0,88,0.00,,,0.00,meteohub,2013-02-03 11:40:00,
2013-02-03 05:46:00,36.9,33.6,30.26,North,9,0.0,0.0,88,0.00,,,0.00,meteohub,2013-02-03 11:46:00,
2013-02-03 05:51:00,36.9,33.6,30.26,North,9,0.0,1.0,88,0.00,,,0.00,meteohub,2013-02-03 11:51:00,
2013-02-03 05:56:00,36.9,34.0,30.26,North,9,0.0,1.0,89,0.00,,,0.00,meteohub,2013-02-03 11:56:00,
2013-02-03 06:01:00,36.9,34.0,30.26,North,9,0.0,1.0,89,0.00,,,0.00,meteohub,2013-02-03 12:01:00,
2013-02-03 06:07:00,36.7,33.4,30.26,North,9,0.0,0.0,88,0.00,,,0.00,meteohub,2013-02-03 12:07:00,
2013-02-03 06:12:00,36.9,33.6,30.27,North,9,0.0,0.0,88,0.00,,,0.00,meteohub,2013-02-03 12:12:00,
2013-02-03 06:17:00,36.7,33.8,30.27,North,9,0.0,0.0,89,0.00,,,0.00,meteohub,2013-02-03 12:17:00,
2013-02-03 06:22:00,36.9,34.0,30.26,North,9,0.0,0.0,89,0.00,,,0.00,meteohub,2013-02-03 12:22:00,
2013-02-03 06:27:00,36.9,34.0,30.26,North,9,0.0,0.0,89,0.00,,,0.00,meteohub,2013-02-03 12:27:00,
2013-02-03 06:32:00,36.9,34.0,30.27,North,9,0.0,0.0,89,0.00,,,0.00,meteohub,2013-02-03 12:32:00,
2013-02-03 06:37:00,36.7,33.8,30.27,North,9,0.0,0.0,89,0.00,,,0.00,meteohub,2013-02-03 12:37:00,
2013-02-03 06:42:00,36.7,33.8,30.27,North,9,0.0,0.0,89,0.00,,,0.00,meteohub,2013-02-03 12:42:00,
2013-02-03 06:47:00,36.7,33.8,30.27,North,9,0.0,0.0,89,0.00,,,0.00,meteohub,2013-02-03 12:47:00,
2013-02-03 06:52:00,36.7,33.8,30.27,North,9,0.0,0.0,89,0.00,,,0.00,meteohub,2013-02-03 12:52:00,
2013-02-03 06:57:00,36.7,33.8,30.27,North,9,0.0,0.0,89,0.00,,,0.00,meteohub,2013-02-03 12:57:00,
2013-02-03 07:02:00,36.7,33.4,30.27,North,9,0.0,0.0,88,0.00,,,0.00,meteohub,2013-02-03 13:02:00,
2013-02-03 07:07:00,36.7,33.4,30.27,North,9,0.0,0.0,88,0.00,,,0.00,meteohub,2013-02-03 13:07:00,
2013-02-03 07:13:00,36.5,33.3,30.27,North,9,0.0,0.0,88,0.00,,,0.00,meteohub,2013-02-03 13:13:00,
2013-02-03 07:18:00,36.3,33.1,30.27,North,9,0.0,0.0,88,0.00,,,0.00,meteohub,2013-02-03 13:18:00,
2013-02-03 07:23:00,36.3,33.1,30.27,North,9,0.0,0.0,88,0.00,,,0.00,meteohub,2013-02-03 13:23:00,
2013-02-03 07:28:00,36.3,33.1,30.27,North,9,0.0,0.0,88,0.00,,,0.00,meteohub,2013-02-03 13:28:00,
2013-02-03 07:33:00,36.3,33.4,30.27,North,9,1.0,0.0,89,0.00,,,0.00,meteohub,2013-02-03 13:33:00,
2013-02-03 07:39:00,36.7,34.0,30.27,North,9,0.0,0.0,90,0.00,,,0.00,meteohub,2013-02-03 13:39:00,
2013-02-03 07:44:00,36.9,34.2,30.28,North,9,0.0,1.0,90,0.00,,,0.00,meteohub,2013-02-03 13:44:00,
2013-02-03 07:49:00,36.9,34.2,30.27,North,9,0.0,1.0,90,0.00,,,0.00,meteohub,2013-02-03 13:49:00,
2013-02-03 07:54:00,36.9,34.2,30.28,North,9,0.0,1.0,90,0.00,,,0.00,meteohub,2013-02-03 13:54:00,
2013-02-03 07:59:00,37.0,34.3,30.28,North,9,0.0,0.0,90,0.00,,,0.00,meteohub,2013-02-03 13:59:00,
2013-02-03 08:05:00,37.0,34.3,30.28,North,9,0.0,0.0,90,0.00,,,0.00,meteohub,2013-02-03 14:05:00,
2013-02-03 08:10:00,37.0,34.3,30.28,North,9,0.0,0.0,90,0.00,,,0.00,meteohub,2013-02-03 14:10:00,
2013-02-03 08:15:00,37.0,34.3,30.28,North,9,0.0,0.0,90,0.00,,,0.00,meteohub,2013-02-03 14:15:00,
2013-02-03 08:20:00,37.2,34.5,30.29,North,9,1.0,0.0,90,0.00,,,0.00,meteohub,2013-02-03 14:20:00,
2013-02-03 08:25:00,37.8,35.6,30.29,WSW,254,0.0,0.0,92,0.00,,,0.00,meteohub,2013-02-03 14:25:00,
2013-02-03 08:31:00,39.0,36.9,30.29,WSW,254,0.0,4.0,92,0.00,,,0.00,meteohub,2013-02-03 14:31:00,
2013-02-03 08:36:00,40.1,37.4,30.29,WSW,254,0.0,4.0,90,0.00,,,0.00,meteohub,2013-02-03 14:36:00,
2013-02-03 08:41:00,40.8,37.6,30.29,WSW,254,0.0,0.0,88,0.00,,,0.00,meteohub,2013-02-03 14:41:00,
2013-02-03 08:46:00,41.7,37.8,30.29,WSW,255,0.0,0.0,86,0.00,,,0.00,meteohub,2013-02-03 14:46:00,
2013-02-03 08:51:00,42.4,38.8,30.29,WSW,254,0.0,0.0,87,0.00,,,0.00,meteohub,2013-02-03 14:51:00,
2013-02-03 08:57:00,43.0,38.5,30.29,WSW,255,0.0,0.0,84,0.00,,,0.00,meteohub,2013-02-03 14:57:00,
2013-02-03 09:02:00,43.9,38.7,30.29,WSW,254,0.0,0.0,82,0.00,,,0.00,meteohub,2013-02-03 15:02:00,
2013-02-03 09:07:00,45.0,38.5,30.29,WSW,255,0.0,0.0,78,0.00,,,0.00,meteohub,2013-02-03 15:07:00,
2013-02-03 09:12:00,45.7,38.3,30.29,WSW,255,0.0,0.0,75,0.00,,,0.00,meteohub,2013-02-03 15:12:00,
2013-02-03 09:17:00,46.4,38.8,30.29,WSW,255,0.0,0.0,75,0.00,,,0.00,meteohub,2013-02-03 15:17:00,
2013-02-03 09:22:00,46.9,39.7,30.29,WSW,254,0.0,1.0,76,0.00,,,0.00,meteohub,2013-02-03 15:22:00,
2013-02-03 09:27:00,47.5,39.6,30.29,WSW,254,0.0,2.0,74,0.00,,,0.00,meteohub,2013-02-03 15:27:00,
2013-02-03 09:32:00,47.8,39.6,30.29,WSW,254,0.0,2.0,73,0.00,,,0.00,meteohub,2013-02-03 15:32:00,
2013-02-03 09:37:00,48.6,39.9,30.28,WSW,254,0.0,2.0,72,0.00,,,0.00,meteohub,2013-02-03 15:37:00,
2013-02-03 09:42:00,48.7,39.4,30.28,WSW,254,0.0,1.0,70,0.00,,,0.00,meteohub,2013-02-03 15:42:00,
2013-02-03 09:47:00,49.6,40.3,30.28,WSW,254,0.0,1.0,70,0.00,,,0.00,meteohub,2013-02-03 15:47:00,
2013-02-03 09:52:00,50.5,40.8,30.29,WSW,254,0.0,2.0,69,0.00,,,0.00,meteohub,2013-02-03 15:52:00,
2013-02-03 09:58:00,51.1,40.5,30.28,WSW,254,0.0,2.0,67,0.00,,,0.00,meteohub,2013-02-03 15:58:00,
2013-02-03 10:03:00,51.8,41.2,30.28,WSW,254,0.0,1.0,67,0.00,,,0.00,meteohub,2013-02-03 16:03:00,
2013-02-03 10:08:00,52.9,43.0,30.28,WSW,255,1.0,1.0,69,0.00,,,0.00,meteohub,2013-02-03 16:08:00,
2013-02-03 10:13:00,54.1,42.6,30.28,WSW,255,0.0,1.0,65,0.00,,,0.00,meteohub,2013-02-03 16:13:00,
2013-02-03 10:18:00,55.0,41.9,30.28,WSW,254,0.0,1.0,61,0.00,,,0.00,meteohub,2013-02-03 16:18:00,
2013-02-03 10:24:00,56.1,42.8,30.28,WSW,254,1.0,1.0,61,0.00,,,0.00,meteohub,2013-02-03 16:24:00,
2013-02-03 10:29:00,57.0,42.8,30.28,WSW,240,0.0,3.0,59,0.00,,,0.00,meteohub,2013-02-03 16:29:00,
2013-02-03 10:34:00,57.6,42.4,30.28,SSE,150,0.0,3.0,57,0.00,,,0.00,meteohub,2013-02-03 16:34:00,
2013-02-03 10:39:00,58.1,45.5,30.28,South,182,0.0,3.0,63,0.00,,,0.00,meteohub,2013-02-03 16:39:00,
2013-02-03 10:44:00,59.4,43.2,30.28,South,189,2.0,3.0,55,0.00,,,0.00,meteohub,2013-02-03 16:44:00,
2013-02-03 10:49:00,60.3,42.6,30.28,SSW,199,0.0,3.0,52,0.00,,,0.00,meteohub,2013-02-03 16:49:00,
2013-02-03 10:55:00,60.4,41.2,30.27,SSW,199,0.0,5.0,49,0.00,,,0.00,meteohub,2013-02-03 16:55:00,
2013-02-03 11:00:00,61.0,41.2,30.27,SSW,199,0.0,5.0,48,0.00,,,0.00,meteohub,2013-02-03 17:00:00,
2013-02-03 11:05:00,61.3,42.1,30.27,SSW,200,2.0,5.0,49,0.00,,,0.00,meteohub,2013-02-03 17:05:00,
2013-02-03 11:10:00,62.2,41.2,30.27,SSW,196,2.0,3.0,46,0.00,,,0.00,meteohub,2013-02-03 17:10:00,
2013-02-03 11:15:00,62.4,40.3,30.27,SE,142,0.0,3.0,44,0.00,,,0.00,meteohub,2013-02-03 17:15:00,
2013-02-03 11:21:00,62.4,38.5,30.26,SE,142,0.0,3.0,41,0.00,,,0.00,meteohub,2013-02-03 17:21:00,
2013-02-03 11:26:00,62.4,40.3,30.26,South,171,4.0,4.0,44,0.00,,,0.00,meteohub,2013-02-03 17:26:00,
2013-02-03 11:31:00,63.1,40.8,30.26,ESE,121,3.0,5.0,44,0.00,,,0.00,meteohub,2013-02-03 17:31:00,
2013-02-03 11:36:00,64.0,39.2,30.26,South,187,3.0,5.0,40,0.00,,,0.00,meteohub,2013-02-03 17:36:00,
2013-02-03 11:41:00,64.8,41.2,30.26,South,171,2.0,5.0,42,0.00,,,0.00,meteohub,2013-02-03 17:41:00,
2013-02-03 11:46:00,64.9,38.7,30.25,South,169,5.0,5.0,38,0.00,,,0.00,meteohub,2013-02-03 17:46:00,
2013-02-03 11:52:00,64.9,37.4,30.25,SSE,158,2.0,6.0,36,0.00,,,0.00,meteohub,2013-02-03 17:52:00,
2013-02-03 11:57:00,64.0,36.5,30.25,SE,141,5.0,6.0,36,0.00,,,0.00,meteohub,2013-02-03 17:57:00,
2013-02-03 12:02:00,64.6,37.0,30.25,SSE,163,2.0,6.0,36,0.00,,,0.00,meteohub,2013-02-03 18:02:00,
2013-02-03 12:07:00,65.7,40.6,30.25,SSW,210,7.0,7.0,40,0.00,,,0.00,meteohub,2013-02-03 18:07:00,
2013-02-03 12:12:00,66.4,39.4,30.24,SSE,163,3.0,7.0,37,0.00,,,0.00,meteohub,2013-02-03 18:12:00,
2013-02-03 12:17:00,66.2,36.3,30.24,SSE,160,4.0,7.0,33,0.00,,,0.00,meteohub,2013-02-03 18:17:00,
2013-02-03 12:22:00,66.2,36.3,30.23,SSE,161,2.0,7.0,33,0.00,,,0.00,meteohub,2013-02-03 18:22:00,
2013-02-03 12:27:00,66.9,39.0,30.23,West,267,3.0,7.0,36,0.00,,,0.00,meteohub,2013-02-03 18:27:00,
2013-02-03 12:32:00,67.5,40.3,30.22,SW,214,1.0,6.0,37,0.00,,,0.00,meteohub,2013-02-03 18:32:00,
2013-02-03 12:37:00,67.5,38.1,30.22,SE,133,5.0,7.0,34,0.00,,,0.00,meteohub,2013-02-03 18:37:00,
2013-02-03 12:43:00,67.6,36.0,30.22,South,178,1.0,7.0,31,0.00,,,0.00,meteohub,2013-02-03 18:43:00,
2013-02-03 12:48:00,67.3,33.1,30.22,SE,126,2.0,7.0,28,0.00,,,0.00,meteohub,2013-02-03 18:48:00,
2013-02-03 12:53:00,67.1,34.7,30.21,SE,139,3.0,9.0,30,0.00,,,0.00,meteohub,2013-02-03 18:53:00,
2013-02-03 12:58:00,67.3,31.3,30.21,South,179,3.0,9.0,26,0.00,,,0.00,meteohub,2013-02-03 18:58:00,
2013-02-03 13:03:00,67.6,35.1,30.20,SSW,199,5.0,8.0,30,0.00,,,0.00,meteohub,2013-02-03 19:03:00,
2013-02-03 13:09:00,67.8,36.1,30.20,SSW,200,0.0,8.0,31,0.00,,,0.00,meteohub,2013-02-03 19:09:00,
2013-02-03 13:14:00,67.3,32.2,30.19,SSW,202,4.0,8.0,27,0.00,,,0.00,meteohub,2013-02-03 19:14:00,
2013-02-03 13:19:00,67.8,35.2,30.19,South,169,7.0,8.0,30,0.00,,,0.00,meteohub,2013-02-03 19:19:00,
2013-02-03 13:24:00,67.5,30.4,30.19,SE,140,4.0,8.0,25,0.00,,,0.00,meteohub,2013-02-03 19:24:00,
2013-02-03 13:29:00,66.7,30.7,30.19,SE,130,1.0,8.0,26,0.00,,,0.00,meteohub,2013-02-03 19:29:00,
2013-02-03 13:34:00,67.1,32.0,30.19,SSE,161,5.0,7.0,27,0.00,,,0.00,meteohub,2013-02-03 19:34:00,
2013-02-03 13:40:00,67.6,32.5,30.18,South,172,0.0,7.0,27,0.00,,,0.00,meteohub,2013-02-03 19:40:00,
2013-02-03 13:45:00,68.2,32.0,30.18,ENE,65,3.0,7.0,26,0.00,,,0.00,meteohub,2013-02-03 19:45:00,
2013-02-03 13:50:00,67.8,32.5,30.17,SE,127,2.0,7.0,27,0.00,,,0.00,meteohub,2013-02-03 19:50:00,
2013-02-03 13:55:00,67.8,34.3,30.17,SE,130,5.0,7.0,29,0.00,,,0.00,meteohub,2013-02-03 19:55:00,
2013-02-03 14:00:00,68.4,32.2,30.17,SE,132,3.0,8.0,26,0.00,,,0.00,meteohub,2013-02-03 20:00:00,
2013-02-03 14:06:00,68.0,33.6,30.16,South,180,4.0,9.0,28,0.00,,,0.00,meteohub,2013-02-03 20:06:00,
2013-02-03 14:11:00,68.7,34.3,30.16,South,172,0.0,9.0,28,0.00,,,0.00,meteohub,2013-02-03 20:11:00,
2013-02-03 14:16:00,68.7,35.2,30.15,SE,144,4.0,8.0,29,0.00,,,0.00,meteohub,2013-02-03 20:16:00,
2013-02-03 14:21:00,67.8,33.4,30.15,South,175,1.0,10.0,28,0.00,,,0.00,meteohub,2013-02-03 20:21:00,
2013-02-03 14:26:00,67.6,33.4,30.15,SE,138,5.0,10.0,28,0.00,,,0.00,meteohub,2013-02-03 20:26:00,
2013-02-03 14:32:00,67.8,34.3,30.15,SSE,151,2.0,10.0,29,0.00,,,0.00,meteohub,2013-02-03 20:32:00,
2013-02-03 14:37:00,68.4,34.0,30.14,SSE,165,2.0,10.0,28,0.00,,,0.00,meteohub,2013-02-03 20:37:00,
2013-02-03 14:42:00,68.7,34.3,30.15,SSE,160,3.0,10.0,28,0.00,,,0.00,meteohub,2013-02-03 20:42:00,
2013-02-03 14:47:00,68.4,33.1,30.14,SSE,159,6.0,9.0,27,0.00,,,0.00,meteohub,2013-02-03 20:47:00,
2013-02-03 14:52:00,68.5,34.2,30.13,South,181,3.0,10.0,28,0.00,,,0.00,meteohub,2013-02-03 20:52:00,
2013-02-03 14:57:00,68.5,32.4,30.13,East,81,0.0,10.0,26,0.00,,,0.00,meteohub,2013-02-03 20:57:00,
2013-02-03 15:02:00,68.7,34.3,30.13,East,88,5.0,10.0,28,0.00,,,0.00,meteohub,2013-02-03 21:02:00,
2013-02-03 15:07:00,68.7,32.4,30.12,ESE,123,8.0,12.0,26,0.00,,,0.00,meteohub,2013-02-03 21:07:00,
2013-02-03 15:12:00,69.3,33.8,30.12,ESE,111,7.0,12.0,27,0.00,,,0.00,meteohub,2013-02-03 21:12:00,
2013-02-03 15:17:00,68.7,32.4,30.12,SE,133,0.0,12.0,26,0.00,,,0.00,meteohub,2013-02-03 21:17:00,
2013-02-03 15:22:00,69.3,32.0,30.11,ESE,113,3.0,10.0,25,0.00,,,0.00,meteohub,2013-02-03 21:22:00,
2013-02-03 15:27:00,68.7,32.4,30.11,South,173,4.0,10.0,26,0.00,,,0.00,meteohub,2013-02-03 21:27:00,
2013-02-03 15:32:00,68.0,32.7,30.11,SSE,162,5.0,9.0,27,0.00,,,0.00,meteohub,2013-02-03 21:32:00,
2013-02-03 15:37:00,67.5,31.5,30.11,South,182,2.0,10.0,26,0.00,,,0.00,meteohub,2013-02-03 21:37:00,
2013-02-03 15:42:00,67.3,32.2,30.11,South,171,5.0,10.0,27,0.00,,,0.00,meteohub,2013-02-03 21:42:00,
2013-02-03 15:47:00,67.6,33.4,30.11,SSE,150,3.0,10.0,28,0.00,,,0.00,meteohub,2013-02-03 21:47:00,
2013-02-03 15:52:00,67.3,32.2,30.10,South,178,2.0,10.0,27,0.00,,,0.00,meteohub,2013-02-03 21:52:00,
2013-02-03 15:57:00,66.7,31.6,30.10,South,175,3.0,10.0,27,0.00,,,0.00,meteohub,2013-02-03 21:57:00,
2013-02-03 16:03:00,66.7,33.4,30.10,SSE,164,3.0,9.0,29,0.00,,,0.00,meteohub,2013-02-03 22:03:00,
2013-02-03 16:08:00,66.6,33.3,30.09,SSE,165,3.0,9.0,29,0.00,,,0.00,meteohub,2013-02-03 22:08:00,
2013-02-03 16:13:00,66.6,35.1,30.09,SSE,158,6.0,9.0,31,0.00,,,0.00,meteohub,2013-02-03 22:13:00,
2013-02-03 16:18:00,67.1,32.9,30.09,SSE,160,6.0,11.0,28,0.00,,,0.00,meteohub,2013-02-03 22:18:00,
2013-02-03 16:23:00,67.5,33.3,30.09,SSW,192,3.0,11.0,28,0.00,,,0.00,meteohub,2013-02-03 22:23:00,
2013-02-03 16:29:00,67.3,33.1,30.08,South,169,2.0,12.0,28,0.00,,,0.00,meteohub,2013-02-03 22:29:00,
2013-02-03 16:34:00,66.7,32.5,30.08,SSE,167,4.0,12.0,28,0.00,,,0.00,meteohub,2013-02-03 22:34:00,
2013-02-03 16:39:00,66.2,32.2,30.08,South,174,6.0,11.0,28,0.00,,,0.00,meteohub,2013-02-03 22:39:00,
2013-02-03 16:44:00,65.8,32.7,30.08,SSE,166,6.0,11.0,29,0.00,,,0.00,meteohub,2013-02-03 22:44:00,
2013-02-03 16:49:00,65.3,31.3,30.07,SE,130,6.0,11.0,28,0.00,,,0.00,meteohub,2013-02-03 22:49:00,
2013-02-03 16:55:00,64.9,32.0,30.07,SSE,163,6.0,10.0,29,0.00,,,0.00,meteohub,2013-02-03 22:55:00,
2013-02-03 17:00:00,64.6,31.6,30.07,South,181,6.0,12.0,29,0.00,,,0.00,meteohub,2013-02-03 23:00:00,
2013-02-03 17:05:00,64.2,31.3,30.07,South,175,10.0,12.0,29,0.00,,,0.00,meteohub,2013-02-03 23:05:00,
2013-02-03 17:10:00,64.0,32.0,30.07,South,173,9.0,12.0,30,0.00,,,0.00,meteohub,2013-02-03 23:10:00,
2013-02-03 17:15:00,63.7,31.6,30.06,South,173,5.0,11.0,30,0.00,,,0.00,meteohub,2013-02-03 23:15:00,
2013-02-03 17:21:00,63.5,31.5,30.06,SSE,154,3.0,10.0,30,0.00,,,0.00,meteohub,2013-02-03 23:21:00,
2013-02-03 17:26:00,63.3,32.2,30.06,South,171,3.0,10.0,31,0.00,,,0.00,meteohub,2013-02-03 23:26:00,
2013-02-03 17:31:00,63.1,32.0,30.06,South,183,3.0,9.0,31,0.00,,,0.00,meteohub,2013-02-03 23:31:00,
2013-02-03 17:36:00,63.1,32.0,30.06,SSE,155,2.0,8.0,31,0.00,,,0.00,meteohub,2013-02-03 23:36:00,
2013-02-03 17:42:00,63.0,32.7,30.06,SE,138,3.0,7.0,32,0.00,,,0.00,meteohub,2013-02-03 23:42:00,
2013-02-03 17:47:00,62.6,33.1,30.06,SSE,152,2.0,7.0,33,0.00,,,0.00,meteohub,2013-02-03 23:47:00,
2013-02-03 17:52:00,62.2,33.4,30.06,SSE,149,4.0,7.0,34,0.00,,,0.00,meteohub,2013-02-03 23:52:00,
2013-02-03 17:57:00,61.9,34.0,30.06,SE,140,3.0,7.0,35,0.00,,,0.00,meteohub,2013-02-03 23:57:00,
2013-02-03 18:02:00,61.2,34.0,30.06,SSE,159,0.0,7.0,36,0.00,,,0.00,meteohub,2013-02-04 00:02:00,
2013-02-03 18:07:00,60.6,34.2,30.05,SE,146,0.0,7.0,37,0.00,,,0.00,meteohub,2013-02-04 00:07:00,
2013-02-03 18:12:00,60.3,34.5,30.06,SSE,159,2.0,6.0,38,0.00,,,0.00,meteohub,2013-02-04 00:12:00,
2013-02-03 18:17:00,59.7,34.0,30.06,SSE,152,1.0,4.0,38,0.00,,,0.00,meteohub,2013-02-04 00:17:00,
2013-02-03 18:23:00,59.5,34.0,30.06,SSE,151,0.0,4.0,38,0.00,,,0.00,meteohub,2013-02-04 00:23:00,
2013-02-03 18:28:00,59.2,34.2,30.06,SSE,163,1.0,3.0,39,0.00,,,0.00,meteohub,2013-02-04 00:28:00,
2013-02-03 18:33:00,58.8,34.0,30.06,South,170,0.0,3.0,39,0.00,,,0.00,meteohub,2013-02-04 00:33:00,
2013-02-03 18:39:00,58.5,34.2,30.06,SSE,155,1.0,3.0,40,0.00,,,0.00,meteohub,2013-02-04 00:39:00,
2013-02-03 18:44:00,58.3,34.0,30.06,SSE,148,0.0,2.0,40,0.00,,,0.00,meteohub,2013-02-04 00:44:00,
2013-02-03 18:49:00,57.9,34.3,30.06,SSE,147,0.0,2.0,41,0.00,,,0.00,meteohub,2013-02-04 00:49:00,
2013-02-03 18:54:00,57.7,34.2,30.06,South,171,0.0,2.0,41,0.00,,,0.00,meteohub,2013-02-04 00:54:00,
2013-02-03 18:59:00,57.7,34.2,30.06,SSE,154,1.0,2.0,41,0.00,,,0.00,meteohub,2013-02-04 00:59:00,
2013-02-03 19:05:00,57.6,34.7,30.06,SE,139,0.0,3.0,42,0.00,,,0.00,meteohub,2013-02-04 01:05:00,
2013-02-03 19:10:00,57.6,34.7,30.05,SSE,153,0.0,3.0,42,0.00,,,0.00,meteohub,2013-02-04 01:10:00,
2013-02-03 19:15:00,57.7,35.4,30.05,SSE,163,1.0,3.0,43,0.00,,,0.00,meteohub,2013-02-04 01:15:00,
2013-02-03 19:20:00,58.1,35.1,30.05,SSE,164,1.0,5.0,42,0.00,,,0.00,meteohub,2013-02-04 01:20:00,
2013-02-03 19:25:00,57.9,35.6,30.05,SSE,150,2.0,5.0,43,0.00,,,0.00,meteohub,2013-02-04 01:25:00,
2013-02-03 19:31:00,57.7,35.4,30.05,SSE,150,3.0,3.0,43,0.00,,,0.00,meteohub,2013-02-04 01:31:00,
2013-02-03 19:36:00,58.1,35.1,30.05,SSE,156,3.0,6.0,42,0.00,,,0.00,meteohub,2013-02-04 01:36:00,
2013-02-03 19:41:00,58.1,34.0,30.05,SSE,167,4.0,6.0,40,0.00,,,0.00,meteohub,2013-02-04 01:41:00,
2013-02-03 19:46:00,57.9,34.9,30.04,SSE,159,0.0,6.0,42,0.00,,,0.00,meteohub,2013-02-04 01:46:00,
2013-02-03 19:51:00,57.4,35.1,30.04,SSE,154,1.0,6.0,43,0.00,,,0.00,meteohub,2013-02-04 01:51:00,
2013-02-03 19:57:00,57.0,34.7,30.04,SSE,166,1.0,3.0,43,0.00,,,0.00,meteohub,2013-02-04 01:57:00,
2013-02-03 20:02:00,57.0,34.7,30.04,SSE,155,0.0,4.0,43,0.00,,,0.00,meteohub,2013-02-04 02:02:00,
2013-02-03 20:07:00,57.0,34.7,30.04,SSE,164,2.0,4.0,43,0.00,,,0.00,meteohub,2013-02-04 02:07:00,
2013-02-03 20:12:00,57.6,34.7,30.04,South,178,1.0,5.0,42,0.00,,,0.00,meteohub,2013-02-04 02:12:00,
2013-02-03 20:17:00,57.9,34.9,30.04,SSE,167,3.0,5.0,42,0.00,,,0.00,meteohub,2013-02-04 02:17:00,
2013-02-03 20:22:00,58.3,34.7,30.04,SSE,163,4.0,5.0,41,0.00,,,0.00,meteohub,2013-02-04 02:22:00,
2013-02-03 20:27:00,58.5,34.2,30.04,SSE,165,4.0,-999.0,40,0.00,,,0.00,meteohub,2013-02-04 02:27:00,
2013-02-03 20:32:00,58.6,34.3,30.04,South,183,4.0,8.0,40,0.00,,,0.00,meteohub,2013-02-04 02:32:00,
2013-02-03 20:37:00,58.6,33.8,30.04,South,180,5.0,8.0,39,0.00,,,0.00,meteohub,2013-02-04 02:37:00,
2013-02-03 20:42:00,58.5,34.2,30.04,South,175,4.0,8.0,40,0.00,,,0.00,meteohub,2013-02-04 02:42:00,
2013-02-03 20:47:00,58.5,34.2,30.03,South,171,5.0,7.0,40,0.00,,,0.00,meteohub,2013-02-04 02:47:00,
2013-02-03 20:52:00,58.5,33.6,30.03,SSE,147,3.0,7.0,39,0.00,,,0.00,meteohub,2013-02-04 02:52:00,
2013-02-03 20:58:00,58.5,34.2,30.03,South,169,3.0,7.0,40,0.00,,,0.00,meteohub,2013-02-04 02:58:00,
2013-02-03 21:03:00,58.1,34.5,30.02,South,177,2.0,7.0,41,0.00,,,0.00,meteohub,2013-02-04 03:03:00,
2013-02-03 21:08:00,57.9,33.8,30.02,SSE,160,6.0,7.0,40,0.00,,,0.00,meteohub,2013-02-04 03:08:00,
2013-02-03 21:13:00,57.9,33.8,30.02,SSE,158,2.0,7.0,40,0.00,,,0.00,meteohub,2013-02-04 03:13:00,
2013-02-03 21:18:00,58.1,34.5,30.02,South,175,4.0,7.0,41,0.00,,,0.00,meteohub,2013-02-04 03:18:00,
2013-02-03 21:23:00,58.3,34.0,30.02,South,174,4.0,9.0,40,0.00,,,0.00,meteohub,2013-02-04 03:23:00,
2013-02-03 21:29:00,58.3,34.0,30.02,SSE,155,4.0,9.0,40,0.00,,,0.00,meteohub,2013-02-04 03:29:00,
2013-02-03 21:34:00,58.3,34.0,30.02,South,170,2.0,7.0,40,0.00,,,0.00,meteohub,2013-02-04 03:34:00,
2013-02-03 21:39:00,57.9,34.3,30.01,SSE,149,2.0,7.0,41,0.00,,,0.00,meteohub,2013-02-04 03:39:00,
2013-02-03 21:44:00,57.7,34.2,30.01,SSE,153,3.0,7.0,41,0.00,,,0.00,meteohub,2013-02-04 03:44:00,
2013-02-03 21:49:00,57.7,34.2,30.01,SSE,168,5.0,7.0,41,0.00,,,0.00,meteohub,2013-02-04 03:49:00,
2013-02-03 21:55:00,57.6,34.0,30.01,SSE,159,3.0,7.0,41,0.00,,,0.00,meteohub,2013-02-04 03:55:00,
2013-02-03 22:00:00,57.6,34.7,30.01,SSE,156,3.0,7.0,42,0.00,,,0.00,meteohub,2013-02-04 04:00:00,
2013-02-03 22:05:00,57.4,34.5,30.01,South,173,2.0,7.0,42,0.00,,,0.00,meteohub,2013-02-04 04:05:00,
2013-02-03 22:10:00,57.4,34.5,30.00,SSE,161,4.0,7.0,42,0.00,,,0.00,meteohub,2013-02-04 04:10:00,
2013-02-03 22:15:00,57.4,34.5,30.00,SSE,148,8.0,8.0,42,0.00,,,0.00,meteohub,2013-02-04 04:15:00,
2013-02-03 22:21:00,57.4,34.5,30.00,South,175,4.0,9.0,42,0.00,,,0.00,meteohub,2013-02-04 04:21:00,
2013-02-03 22:26:00,57.4,34.5,30.00,SSE,163,6.0,9.0,42,0.00,,,0.00,meteohub,2013-02-04 04:26:00,
2013-02-03 22:31:00,57.4,34.5,29.99,South,182,4.0,9.0,42,0.00,,,0.00,meteohub,2013-02-04 04:31:00,
2013-02-03 22:36:00,57.4,34.5,29.99,SE,135,5.0,10.0,42,0.00,,,0.00,meteohub,2013-02-04 04:36:00,
2013-02-03 22:41:00,57.4,34.5,29.99,SSE,162,4.0,10.0,42,0.00,,,0.00,meteohub,2013-02-04 04:41:00,
2013-02-03 22:47:00,57.2,34.3,29.99,South,169,4.0,9.0,42,0.00,,,0.00,meteohub,2013-02-04 04:47:00,
2013-02-03 22:52:00,57.2,34.3,29.99,South,178,5.0,9.0,42,0.00,,,0.00,meteohub,2013-02-04 04:52:00,
2013-02-03 22:57:00,57.2,34.3,29.98,South,180,4.0,9.0,42,0.00,,,0.00,meteohub,2013-02-04 04:57:00,
2013-02-03 23:00:00,57.2,34.3,29.98,SSE,168,7.0,9.0,42,0.00,,,0.00,meteohub,2013-02-04 05:00:00,
2013-02-03 23:02:00,57.2,34.3,29.98,SSW,192,6.0,9.0,42,0.00,,,0.00,meteohub,2013-02-04 05:02:00,
2013-02-03 23:03:00,57.4,34.5,29.98,South,171,5.0,9.0,42,0.00,,,0.00,meteohub,2013-02-04 05:03:00,
2013-02-03 23:08:00,57.4,34.5,29.98,South,169,7.0,9.0,42,0.00,,,0.00,meteohub,2013-02-04 05:08:00,
2013-02-03 23:13:00,57.4,33.8,29.98,South,176,6.0,10.0,41,0.00,,,0.00,meteohub,2013-02-04 05:13:00,
2013-02-03 23:18:00,57.4,34.5,29.98,South,175,5.0,10.0,42,0.00,,,0.00,meteohub,2013-02-04 05:18:00,
2013-02-03 23:24:00,57.4,34.5,29.98,South,188,7.0,10.0,42,0.00,,,0.00,meteohub,2013-02-04 05:24:00,
2013-02-03 23:29:00,57.4,34.5,29.98,South,171,7.0,10.0,42,0.00,,,0.00,meteohub,2013-02-04 05:29:00,
2013-02-03 23:34:00,57.4,34.5,29.98,SSE,161,4.0,10.0,42,0.00,,,0.00,meteohub,2013-02-04 05:34:00,
2013-02-03 23:39:00,57.0,34.2,29.97,South,176,6.0,9.0,42,0.00,,,0.00,meteohub,2013-02-04 05:39:00,
2013-02-03 23:44:00,57.0,34.7,29.97,South,188,7.0,10.0,43,0.00,,,0.00,meteohub,2013-02-04 05:44:00,
2013-02-03 23:49:00,56.8,34.5,29.96,South,184,6.0,10.0,43,0.00,,,0.00,meteohub,2013-02-04 05:49:00,
2013-02-03 23:55:00,56.7,34.3,29.96,SSE,157,7.0,9.0,43,0.00,,,0.00,meteohub,2013-02-04 05:55:00,